Weather History for KHNB - February, 2013

Change the Weather History Date:

Tuesday, February 5, 2013

  Actual Average (KEVV) Record (KEVV)
Temperature  
Mean Temperature 37 °F 34 °F  
Max Temperature 48 °F 43 °F 70 °F (2008)
Min Temperature 26 °F 25 °F -12 °F (1966)
Degree Days  
Heating Degree Days 28 31  
Month to date heating degree days 156  
Since 1 July heating degree days 2935  
Cooling Degree Days 0 0  
Month to date cooling degree days 0  
Year to date cooling degree days 0  
Moisture  
Dew Point 30 °F    
Average Humidity 78    
Maximum Humidity 93    
Minimum Humidity 62    
Precipitation  
Precipitation 0.00 in 0.11 in 2.73 in (2008)
Month to date precipitation 0.60  
Year to date precipitation 3.70  
Snow  
Snow 0.00 in 0.10 in 2.20 in (1980)
Month to date snowfall 0.7  
Since 1 July snowfall 7.6  
Snow Depth -    
Sea Level Pressure  
Sea Level Pressure 29.96 in    
Wind  
Wind Speed 7 mph (West)    
Max Wind Speed 15 mph    
Max Gust Speed 21 mph    
Visibility 8 miles    
Events      
T = Trace of Precipitation, MM = Missing Value Source: NWS Daily Summary

Daily Weather History Graph

Daily Weather History Graph

Search for Another Location

Airport or City:

Trip Planner

Search our weather history database for the weather conditions in past years. The results will help you decide how hot, cold, wet, or windy it might be!

Date:

Astronomy

Feb. 05, 2013 Rise Set
Actual Time 7:48 AM EST 6:15 PM EST
Civil Twilight 7:21 AM EST 6:42 PM EST
Nautical Twilight 6:49 AM EST 7:14 PM EST
Astronomical Twilight 6:18 AM EST 7:45 PM EST
Moon 3:28 AM EST (2/5) 1:34 PM EST (2/5)
Length of Visible Light 11h 21m
Length of Day
10h 26m
Waning Crescent, 27% of the Moon is Illuminated
Feb 5
Waning Crescent
Feb 10
New
Feb 17
First Quarter
Feb 25
Full
Mar 4
Last Quarter

Hourly Weather History & Observations

Time (EST) Temp. Windchill Dew Point Humidity Pressure Visibility Wind Dir Wind Speed Gust Speed Precip Events Conditions
12:15 AM 37.4 °F 31.4 °F 35.6 °F 93% 29.91 in 5.0 mi WSW 8.1 mph - N/A   Overcast
12:35 AM 37.4 °F 32.1 °F 33.8 °F 87% 29.92 in 2.5 mi WNW 6.9 mph - N/A   Overcast
12:55 AM 37.4 °F 29.8 °F 33.8 °F 87% 29.92 in 7.0 mi NNW 11.5 mph - N/A   Overcast
1:15 AM 35.6 °F 28.6 °F 30.2 °F 81% 29.91 in 10.0 mi NNW 9.2 mph - N/A   Overcast
1:35 AM 35.6 °F 31.7 °F 30.2 °F 81% 29.91 in 10.0 mi NNW 4.6 mph - N/A   Overcast
1:55 AM 35.6 °F 29.9 °F 30.2 °F 81% 29.92 in 10.0 mi NNW 6.9 mph - N/A   Overcast
2:15 AM 33.8 °F 27.7 °F 28.4 °F 81% 29.92 in 10.0 mi NNW 6.9 mph - N/A   Overcast
2:35 AM 33.8 °F 27.0 °F 28.4 °F 81% 29.92 in 10.0 mi NNW 8.1 mph - N/A   Overcast
2:55 AM 33.8 °F 28.6 °F 28.4 °F 81% 29.93 in 10.0 mi NNW 5.8 mph - N/A   Overcast
3:15 AM 33.8 °F 27.7 °F 28.4 °F 81% 29.93 in 9.0 mi NNW 6.9 mph - N/A   Overcast
3:35 AM 33.8 °F 27.0 °F 28.4 °F 81% 29.93 in 10.0 mi NNW 8.1 mph - N/A   Overcast
3:55 AM 32.0 °F 26.4 °F 28.4 °F 87% 29.93 in 8.0 mi NNW 5.8 mph - N/A   Overcast
4:35 AM 30.2 °F 23.4 °F 26.6 °F 86% 29.93 in 7.0 mi NW 6.9 mph - N/A   Clear
4:55 AM 30.2 °F 25.4 °F 26.6 °F 86% 29.93 in 7.0 mi NNW 4.6 mph - N/A   Clear
5:35 AM 30.2 °F - 26.6 °F 86% 29.93 in 7.0 mi Calm Calm - N/A   Clear
5:55 AM 30.2 °F 25.4 °F 26.6 °F 86% 29.94 in 6.0 mi WNW 4.6 mph - N/A   Clear
6:15 AM 28.4 °F 23.3 °F 26.6 °F 93% 29.95 in 6.0 mi NW 4.6 mph - N/A   Clear
6:35 AM 28.4 °F 24.6 °F 24.8 °F 86% 29.94 in 5.0 mi NNW 3.5 mph - N/A   Clear
6:55 AM 28.4 °F 24.6 °F 24.8 °F 86% 29.95 in 5.0 mi NW 3.5 mph - N/A   Clear
7:15 AM 28.4 °F 24.6 °F 24.8 °F 86% 29.96 in 4.0 mi NNW 3.5 mph - N/A   Clear
7:35 AM 28.4 °F - 24.8 °F 86% 29.95 in 5.0 mi Calm Calm - N/A   Clear
7:55 AM 26.6 °F - 23.0 °F 86% 29.97 in 2.5 mi Calm Calm - N/A   Clear
8:15 AM 26.6 °F 21.2 °F 24.8 °F 93% 29.98 in 2.5 mi NW 4.6 mph - N/A   Clear
8:35 AM 28.4 °F - 24.8 °F 86% 29.99 in 2.0 mi Calm Calm - N/A   Clear
9:15 AM 28.4 °F 24.6 °F 26.6 °F 93% 29.99 in 3.0 mi WSW 3.5 mph - N/A   Clear
9:35 AM 30.2 °F 25.4 °F 26.6 °F 86% 30.00 in 3.0 mi WSW 4.6 mph - N/A   Clear
9:55 AM 30.2 °F 26.7 °F 26.6 °F 86% 30.00 in 4.0 mi West 3.5 mph - N/A   Partly Cloudy
10:15 AM 30.2 °F 26.7 °F 26.6 °F 86% 30.00 in 4.0 mi WSW 3.5 mph - N/A   Partly Cloudy
10:35 AM 30.2 °F 25.4 °F 26.6 °F 86% 30.00 in 4.0 mi SSE 4.6 mph - N/A   Partly Cloudy
10:55 AM 32.0 °F 27.5 °F 28.4 °F 87% 30.00 in 5.0 mi South 4.6 mph - N/A   Partly Cloudy
11:16 AM 33.8 °F 27.0 °F 28.4 °F 81% 29.99 in 5.0 mi South 8.1 mph - N/A   Partly Cloudy
11:35 AM 33.8 °F 25.8 °F 28.4 °F 81% 29.99 in 6.0 mi South 10.4 mph - N/A   Partly Cloudy
11:55 AM 35.6 °F 28.0 °F 30.2 °F 81% 29.98 in 7.0 mi South 10.4 mph - N/A   Partly Cloudy
12:15 PM 35.6 °F 28.0 °F 30.2 °F 81% 29.98 in 9.0 mi South 10.4 mph - N/A   Clear
12:35 PM 37.4 °F 29.8 °F 30.2 °F 75% 29.96 in 9.0 mi South 11.5 mph - N/A   Clear
1:15 PM 39.2 °F 33.0 °F 32.0 °F 75% 29.95 in 10.0 mi SSW 9.2 mph - N/A   Clear
1:35 PM 39.2 °F 33.0 °F 33.8 °F 81% 29.95 in 10.0 mi SW 9.2 mph - N/A   Clear
1:55 PM 41.0 °F 33.1 °F 33.8 °F 76% 29.93 in 10.0 mi South 15.0 mph - N/A   Clear
2:15 PM 42.8 °F 36.6 °F 35.6 °F 76% 29.92 in 9.0 mi SSW 11.5 mph - N/A   Clear
2:35 PM 44.6 °F 38.4 °F 35.6 °F 71% 29.92 in 8.0 mi SSW 12.7 mph 20.7 mph N/A   Clear
2:55 PM 44.6 °F 38.8 °F 35.6 °F 71% 29.92 in 8.0 mi SW 11.5 mph - N/A   Clear
3:15 PM 44.6 °F 39.7 °F 35.6 °F 71% 29.92 in 9.0 mi SW 9.2 mph - N/A   Clear
3:35 PM 46.4 °F 41.1 °F 35.6 °F 66% 29.91 in 10.0 mi SSW 11.5 mph - N/A   Clear
3:55 PM 46.4 °F 40.7 °F 37.4 °F 71% 29.91 in 10.0 mi SSW 12.7 mph - N/A   Clear
4:15 PM 46.4 °F 41.9 °F 37.4 °F 71% 29.92 in 10.0 mi WSW 9.2 mph - N/A   Clear
4:35 PM 46.4 °F 41.1 °F 35.6 °F 66% 29.91 in 10.0 mi SW 11.5 mph - N/A   Scattered Clouds
4:55 PM 46.4 °F 41.1 °F 35.6 °F 66% 29.90 in 10.0 mi SW 11.5 mph - N/A   Overcast
5:35 PM 48.2 °F - 35.6 °F 62% 29.92 in 10.0 mi WSW 9.2 mph - N/A   Overcast
5:55 PM 46.4 °F 42.4 °F 35.6 °F 66% 29.93 in 10.0 mi WSW 8.1 mph - N/A   Partly Cloudy
6:15 PM 44.6 °F 39.7 °F 33.8 °F 66% 29.93 in 10.0 mi WSW 9.2 mph - N/A   Clear
6:35 PM 42.8 °F 38.0 °F 33.8 °F 70% 29.94 in 10.0 mi WSW 8.1 mph - N/A   Clear
6:55 PM 42.8 °F 38.0 °F 33.8 °F 70% 29.94 in 10.0 mi WSW 8.1 mph - N/A   Clear
7:15 PM 42.8 °F 38.0 °F 32.0 °F 66% 29.96 in 10.0 mi WSW 8.1 mph - N/A   Clear
7:35 PM 42.8 °F 38.0 °F 32.0 °F 66% 29.97 in 10.0 mi WSW 8.1 mph - N/A   Clear
8:15 PM 39.2 °F 34.2 °F 30.2 °F 70% 29.99 in 10.0 mi WNW 6.9 mph - N/A   Clear
8:35 PM 41.0 °F 37.1 °F 32.0 °F 70% 30.00 in 10.0 mi WNW 5.8 mph - N/A   Clear
8:55 PM 41.0 °F 38.0 °F 32.0 °F 70% 30.00 in 10.0 mi WNW 4.6 mph - N/A   Clear
9:15 PM 39.2 °F 35.9 °F 32.0 °F 75% 30.01 in 10.0 mi NNW 4.6 mph - N/A   Clear
9:35 PM 37.4 °F 33.8 °F 30.2 °F 75% 30.02 in 10.0 mi WNW 4.6 mph - N/A   Clear
10:15 PM 37.4 °F 31.4 °F 30.2 °F 75% 30.04 in 10.0 mi NW 8.1 mph - N/A   Clear
10:35 PM 39.2 °F 33.0 °F 30.2 °F 70% 30.05 in 10.0 mi NW 9.2 mph - N/A   Clear
10:55 PM 39.2 °F 33.0 °F 32.0 °F 75% 30.06 in 10.0 mi NW 9.2 mph - N/A   Clear
11:15 PM 39.2 °F 32.0 °F 30.2 °F 70% 30.06 in 10.0 mi NNW 11.5 mph - N/A   Clear
11:35 PM 39.2 °F 32.5 °F 30.2 °F 70% 30.07 in 10.0 mi NNW 10.4 mph - N/A   Clear
11:55 PM 37.4 °F 29.8 °F 30.2 °F 75% 30.07 in 10.0 mi NNW 11.5 mph - N/A   Clear